Home   Weather   Edinburgh   Past weeks
Flag for United Kingdom

Past Weather in Edinburgh, Scotland, United Kingdom — Yesterday and Last 2 Weeks

Now
52 °F

Light rain. Partly sunny.


Feels Like: 46 °F
Forecast: 53 / 47 °F
Wind: 22 mph from Southwest

Location: Edinburgh Airport

Current Time: Feb 17, 2019 at 12:14:07 pm

Latest Report: Feb 17, 2019 at 11:50 am


Visibility: N/A

Pressure: 29.62 "Hg

Humidity: 77%

Dew Point: 45 °F

Location of EdinburghLocation

Past Weather in Edinburgh — Graph

°F

Edinburgh Temperature Yesterday

Maximum temperature yesterday: 52 °F (at 11:50 am)
Minimum temperature yesterday: 48 °F (at 7:50 am)
Average temperature yesterday: 50 °F

High & Low Weather Summary for the Past Weeks

 TemperatureHumidityPressure
High55 °F (Feb 15, 1:50 pm)100% (Feb 5, 12:50 am)30.30 "Hg (Feb 5, 12:50 am)
Low21 °F (Feb 2, 11:50 pm)52% (Feb 2, 3:20 pm)28.56 "Hg (Feb 9, 2:20 am)
Average42 °F84%29.78 "Hg
* Reported Feb 2 10:20 am — Feb 17 10:50 am, Edinburgh. Weather by CustomWeather, © 2019

Note: Actual official high and low records may vary slightly from our data, if they occured in-between our weather recording intervals... More about our weather records

Advertising

Edinburgh Weather History for the Previous 24 Hours

Scroll right to see more
 ConditionsComfort  
Time TempWeatherWind HumidityBarometerVisibility
10:50 am
Sun, Feb 17
55 °FPassing clouds.21 mph63%29.62 "HgN/A
10:20 am54 °FScattered clouds.20 mph63%29.62 "HgN/A
9:50 am55 °FScattered clouds.17 mph59%29.65 "HgN/A
9:20 am54 °FPassing clouds.13 mph58%29.65 "HgN/A
8:50 am54 °FPassing clouds.8 mph58%29.65 "HgN/A
8:20 am54 °FPassing clouds.10 mph58%29.65 "HgN/A
7:50 am52 °FSunny.12 mph62%29.68 "Hg10 mi
7:20 am52 °FPassing clouds.7 mph62%29.68 "HgN/A
6:50 am50 °FPassing clouds.5 mph67%29.68 "HgN/A
6:20 am52 °FClear.13 mph67%29.71 "Hg10 mi
5:50 am52 °FClear.14 mph67%29.71 "Hg10 mi
5:20 am50 °FPassing clouds.8 mph71%29.71 "HgN/A
4:50 am50 °FPassing clouds.8 mph76%29.71 "HgN/A
4:20 am52 °FOvercast.14 mph72%29.74 "HgN/A
3:50 am52 °FOvercast.21 mph77%29.74 "HgN/A
2:50 am52 °FPassing clouds.23 mph77%29.74 "HgN/A
2:20 am52 °FPassing clouds.17 mph77%29.77 "HgN/A
1:50 am52 °FOvercast.18 mph82%29.77 "HgN/A
1:20 am52 °FOvercast.20 mph82%29.77 "HgN/A
12:50 am52 °FOvercast.17 mph82%29.77 "HgN/A
12:20 am52 °FOvercast.20 mph82%29.77 "HgN/A
11:50 pm
Sat, Feb 16
52 °FOvercast.12 mph82%29.80 "HgN/A
11:20 pm52 °FPassing clouds.15 mph88%29.80 "HgN/A
10:50 pm52 °FOvercast.9 mph82%29.80 "HgN/A
10:20 pm52 °FOvercast.12 mph82%29.83 "HgN/A
9:50 pm50 °FPassing clouds.8 mph82%29.83 "HgN/A
9:20 pm50 °FPassing clouds.10 mph82%29.86 "HgN/A
8:50 pm50 °FPassing clouds.10 mph76%29.86 "HgN/A
8:20 pm48 °FPassing clouds.8 mph76%29.86 "HgN/A
7:50 pm48 °FPassing clouds.9 mph76%29.86 "HgN/A
7:20 pm48 °FPassing clouds.9 mph76%29.89 "HgN/A
6:50 pm48 °FPassing clouds.12 mph76%29.89 "HgN/A
6:20 pm48 °FPassing clouds.8 mph76%29.89 "HgN/A
5:50 pm48 °FPassing clouds.13 mph76%29.89 "HgN/A
5:20 pm50 °FPassing clouds.12 mph71%29.89 "HgN/A
4:50 pm50 °FScattered clouds.12 mph71%29.89 "HgN/A
4:20 pm50 °FScattered clouds.12 mph71%29.89 "HgN/A
3:50 pm50 °FScattered clouds.12 mph71%29.89 "HgN/A
3:20 pm50 °FScattered clouds.17 mph71%29.92 "HgN/A
2:50 pm52 °FScattered clouds.18 mph67%29.92 "HgN/A
2:20 pm52 °FScattered clouds.17 mph62%29.92 "HgN/A
1:20 pm52 °FPassing clouds.20 mph62%29.92 "HgN/A
12:50 pm52 °FScattered clouds.13 mph67%29.92 "HgN/A
Weather by CustomWeather, © 2019

See weather overview